This is the latest recevied weather packets stored in our database for station/object N7SHZ. If no packets are shown the sender has not sent any weather packets the latest 1 day(s).
| Time | Temp. | Humidity | Pressure | Rain* | Wind** | Luminosity | Snow |
|---|---|---|---|---|---|---|---|
| 1778019002 | 1.67° C | 99% | 1027.3 hPa | - | 2.68 m/s, 267° | 364 W/m² | - |
| 1778018699 | 1.67° C | 99% | 1027.4 hPa | - | 3.58 m/s, 280° | 345 W/m² | - |
| 1778018396 | 1.11° C | 99% | 1027.5 hPa | - | 2.24 m/s, 300° | 245 W/m² | - |
| 1778018095 | 1.67° C | 99% | 1027.3 hPa | - | 5.81 m/s, 244° | 257 W/m² | - |
| 1778017792 | 1.67° C | 99% | 1027.4 hPa | - | 4.92 m/s, 229° | 292 W/m² | - |
| 1778017490 | 1.11° C | 99% | 1027.3 hPa | - | 6.26 m/s, 249° | 497 W/m² | - |
| 1778017187 | 1.11° C | 99% | 1027.5 hPa | - | 4.92 m/s, 263° | 323 W/m² | - |
| 1778016885 | 1.11° C | 99% | 1027.4 hPa | - | 5.81 m/s, 229° | 337 W/m² | - |
| 1778016581 | 1.11° C | 99% | 1027.5 hPa | - | 6.26 m/s, 259° | 618 W/m² | - |
| 1778016278 | 1.11° C | 99% | 1027.5 hPa | - | 4.47 m/s, 260° | 393 W/m² | - |
| 1778015974 | 1.67° C | 99% | 1027.5 hPa | - | 4.92 m/s, 263° | 514 W/m² | - |
| 1778015672 | 1.11° C | 99% | 1027.9 hPa | - | 1.79 m/s, 299° | 520 W/m² | - |
| 1778015368 | 1.67° C | 99% | 1027.5 hPa | - | 3.13 m/s, 248° | 523 W/m² | - |
| 1778015065 | 1.11° C | 99% | 1027.7 hPa | - | 3.13 m/s, 278° | 613 W/m² | - |
| 1778014762 | 1.11° C | 99% | 1027.7 hPa | - | 3.13 m/s, 228° | 632 W/m² | - |
| 1778014460 | 0.56° C | 99% | 1027.4 hPa | - | 2.68 m/s, 227° | 494 W/m² | - |
| 1778014157 | 0.56° C | 99% | 1027.8 hPa | - | 1.79 m/s, 208° | 526 W/m² | - |
| 1778013855 | 1.11° C | 99% | 1027.9 hPa | - | 3.13 m/s, 237° | 530 W/m² | - |
| 1778013552 | 1.11° C | 99% | 1027.8 hPa | - | 1.79 m/s, 221° | 501 W/m² | - |
| 1778013248 | 1.11° C | 99% | 1027.8 hPa | - | 1.34 m/s, 246° | 549 W/m² | - |
| 1778012944 | 0.56° C | 99% | 1027.9 hPa | - | 3.13 m/s, 250° | 499 W/m² | - |
| 1778012640 | 0.56° C | 99% | 1028.1 hPa | - | 3.13 m/s, 259° | 479 W/m² | - |
| 1778012337 | 0.56° C | 99% | 1027.9 hPa | - | 1.34 m/s, 1° | 412 W/m² | - |
| 1778012034 | 0.56° C | 99% | 1027.8 hPa | - | 0 m/s | 356 W/m² | - |
| 1778011733 | 0.56° C | 99% | 1027.8 hPa | - | 0.89 m/s, 307° | 405 W/m² | - |
* Rain since midnight (hover to see other rain measurements)
** Current wind speed in m/s (hover to see current wind gust speed)